Date String (YYYY-MM-DD hh:mm:ss) UTC,Instrument flags,Ambient pressure (hPa),Sample flow (lpm),Bypass flow (lpm),Sample temperature (°C),Ambient temperature (°C),ASC tube jacket temperature (°C),LED temperature (°C),Box temperature (°C),Sample RH (%),Span deviation,Mass concentration (μg/m³),Mass concentration (μg/m³),Mass concentration (μg/m³)
DateTimeUTC,F1_M11,P_M11,Q1_M11,Q2_M11,T1_M11,T2_M11,T3_M11,T4_M11,T5_M11,U1_M11,ZSPAN_M11,X0_M11,X2_M11,X1_M11
2022-09-19 22:00:00,,0824.5,4.99,0.00,29.7,26.5,00.0,38.2,31.5,14.8,0000.0,0010.59,0003.55,0002.98
2022-09-19 22:01:00,,0824.6,5.00,0.00,29.6,26.8,00.0,38.2,31.4,15.0,0000.0,0010.65,0003.54,0002.97
2022-09-19 22:02:00,,0824.5,5.00,0.00,29.6,27.1,00.0,38.2,31.2,15.2,0000.0,0011.23,0003.54,0002.97
2022-09-19 22:03:00,,0824.7,5.00,0.00,29.5,27.4,00.0,38.2,31.3,15.5,0000.0,0011.22,0003.50,0002.95
2022-09-19 22:04:00,,0824.6,4.99,0.00,29.6,27.7,00.0,38.2,31.4,15.0,0000.0,0011.51,0003.52,0002.95
2022-09-19 22:05:00,,0824.7,5.01,0.00,29.6,28.0,00.0,38.2,31.4,15.0,0000.0,0011.94,0003.55,0002.95
2022-09-19 22:06:00,,0824.8,4.99,0.00,29.6,28.2,00.0,38.2,31.5,15.4,0000.0,0011.08,0003.58,0002.97
2022-09-19 22:07:00,,0824.9,5.01,0.00,29.7,28.4,00.0,38.2,31.5,15.2,0000.0,0009.80,0003.54,0002.99
2022-09-19 22:08:00,,0824.8,4.99,0.00,29.7,28.5,00.0,38.3,31.6,14.3,0000.0,0009.73,0003.55,0003.01
2022-09-19 22:09:00,,0824.8,5.01,0.00,29.8,28.3,00.0,38.3,31.7,14.9,0000.0,0009.29,0003.56,0003.04
2022-09-19 22:10:00,,0824.7,5.00,0.00,29.7,27.0,00.0,38.3,31.6,15.1,0000.0,0008.73,0003.56,0003.05
2022-09-19 22:11:00,,0824.6,5.00,0.00,29.7,26.5,00.0,38.2,31.5,15.2,0000.0,0008.08,0003.52,0003.06
2022-09-19 22:12:00,,0824.8,5.00,0.00,29.7,26.8,00.0,38.2,31.5,15.7,0000.0,0008.24,0003.52,0003.08
2022-09-19 22:13:00,,0824.6,5.00,0.00,29.6,27.1,00.0,38.2,31.3,15.5,0000.0,0008.14,0003.51,0003.11
2022-09-19 22:14:00,,0824.7,5.01,0.00,29.6,27.4,00.0,38.2,31.3,16.0,0000.0,0008.63,0003.54,0003.14
2022-09-19 22:15:00,,0824.7,4.98,0.00,29.6,27.7,00.0,38.2,31.4,15.7,0000.0,0008.52,0003.54,0003.15
2022-09-19 22:16:00,,0824.9,5.01,0.00,29.6,28.0,00.0,38.2,31.4,15.4,0000.0,0009.05,0003.54,0003.17
2022-09-19 22:17:00,,0824.5,5.01,0.00,29.7,28.2,00.0,38.2,31.5,15.5,0000.0,0009.21,0003.52,0003.17
2022-09-19 22:18:00,,0824.6,4.99,0.00,29.7,28.4,00.0,38.3,31.6,14.8,0000.0,0009.17,0003.50,0003.17
2022-09-19 22:19:00,,0824.6,5.00,0.00,29.7,28.3,00.0,38.3,31.7,14.4,0000.0,0009.13,0003.48,0003.15
2022-09-19 22:20:00,,0824.8,5.00,0.00,29.7,27.1,00.0,38.3,31.6,14.8,0000.0,0009.10,0003.48,0003.15
2022-09-19 22:21:00,,0824.7,5.01,0.00,29.7,26.5,00.0,38.2,31.5,15.1,0000.0,0008.98,0003.48,0003.14
2022-09-19 22:22:00,,0824.8,5.01,0.00,29.7,26.7,00.0,38.2,31.5,15.0,0000.0,0008.90,0003.48,0003.14
2022-09-19 22:23:00,,0824.7,4.99,0.00,29.6,27.0,00.0,38.2,31.3,15.3,0000.0,0008.62,0003.47,0003.13
2022-09-19 22:24:00,,0824.8,5.00,0.00,29.6,27.3,00.0,38.2,31.3,15.4,0000.0,0008.40,0003.47,0003.09
2022-09-19 22:25:00,,0824.8,5.00,0.00,29.6,27.6,00.0,38.2,31.4,15.2,0000.0,0007.71,0003.45,0003.07
2022-09-19 22:26:00,,0824.8,4.98,0.00,29.6,27.9,00.0,38.2,31.4,14.6,0000.0,0007.64,0003.44,0003.05
2022-09-19 22:27:00,,0824.6,5.01,0.00,29.6,28.1,00.0,38.2,31.5,14.8,0000.0,0006.20,0003.41,0003.03
2022-09-19 22:28:00,,0824.7,4.99,0.00,29.7,28.4,00.0,38.2,31.6,15.0,0000.0,0005.79,0003.42,0003.01
2022-09-19 22:29:00,,0824.8,4.99,0.00,29.7,28.5,00.0,38.3,31.6,14.8,0000.0,0006.23,0003.42,0003.01
2022-09-19 22:30:00,,0824.6,5.01,0.00,29.8,28.1,00.0,38.3,31.7,14.9,0000.0,0006.59,0003.44,0003.02
2022-09-19 22:31:00,,0824.7,5.01,0.00,29.7,26.8,00.0,38.3,31.6,15.1,0000.0,0006.57,0003.42,0003.03
2022-09-19 22:32:00,,0824.5,4.98,0.00,29.7,26.6,00.0,38.2,31.5,15.0,0000.0,0006.49,0003.41,0003.04
2022-09-19 22:33:00,,0824.6,5.00,0.00,29.7,26.9,00.0,38.2,31.4,15.2,0000.0,0006.56,0003.43,0003.04
2022-09-19 22:34:00,,0824.6,5.01,0.00,29.6,27.1,00.0,38.2,31.3,15.3,0000.0,0006.55,0003.42,0003.06
2022-09-19 22:35:00,,0824.8,5.00,0.00,29.6,27.5,00.0,38.2,31.3,15.4,0000.0,0006.17,0003.42,0003.08
2022-09-19 22:36:00,,0824.7,5.00,0.00,29.6,27.8,00.0,38.2,31.4,15.4,0000.0,0006.36,0003.42,0003.08
2022-09-19 22:37:00,,0824.6,5.00,0.00,29.6,28.1,00.0,38.2,31.5,15.3,0000.0,0007.36,0003.44,0003.06
2022-09-19 22:38:00,,0824.7,5.00,0.00,29.7,28.3,00.0,38.3,31.6,15.0,0000.0,0007.84,0003.45,0003.05
2022-09-19 22:39:00,,0824.6,4.99,0.00,29.7,28.5,00.0,38.3,31.6,15.8,0000.0,0008.58,0003.48,0003.04
2022-09-19 22:40:00,,0824.6,5.01,0.00,29.8,28.2,00.0,38.3,31.7,15.3,0000.0,0009.34,0003.48,0003.02
2022-09-19 22:41:00,,0824.5,5.01,0.00,29.7,27.0,00.0,38.3,31.6,14.4,0000.0,0009.39,0003.45,0003.00
2022-09-19 22:42:00,,0824.6,5.00,0.00,29.7,26.6,00.0,38.2,31.5,14.3,0000.0,0010.41,0003.43,0002.98
2022-09-19 22:43:00,,0824.7,4.99,0.00,29.7,26.9,00.0,38.2,31.5,14.3,0000.0,0011.08,0003.43,0002.94
2022-09-19 22:44:00,,0824.6,5.00,0.00,29.6,27.1,00.0,38.2,31.3,14.6,0000.0,0011.11,0003.42,0002.90
2022-09-19 22:45:00,,0824.6,5.01,0.00,29.6,27.4,00.0,38.2,31.3,15.0,0000.0,0011.23,0003.41,0002.87
2022-09-19 22:46:00,,0824.6,4.99,0.00,29.6,27.7,00.0,38.2,31.4,14.9,0000.0,0011.58,0003.40,0002.85
2022-09-19 22:47:00,,0824.6,5.00,0.00,29.6,28.0,00.0,38.2,31.4,14.2,0000.0,0011.64,0003.42,0002.84
2022-09-19 22:48:00,,0824.6,4.99,0.00,29.7,28.2,00.0,38.2,31.5,14.2,0000.0,0011.13,0003.40,0002.83
2022-09-19 22:49:00,,0824.7,5.00,0.00,29.7,28.4,00.0,38.3,31.6,14.5,0000.0,0010.40,0003.36,0002.83
2022-09-19 22:50:00,,0824.6,5.00,0.00,29.7,28.3,00.0,38.3,31.7,14.3,0000.0,0009.90,0003.32,0002.83
2022-09-19 22:51:00,,0824.7,5.01,0.00,29.7,27.1,00.0,38.3,31.6,14.4,0000.0,0009.40,0003.30,0002.83
2022-09-19 22:52:00,,0824.7,5.00,0.00,29.7,26.5,00.0,38.2,31.5,14.2,0000.0,0010.20,0003.31,0002.84
2022-09-19 22:53:00,,0824.7,5.01,0.00,29.7,26.8,00.0,38.2,31.5,14.3,0000.0,0009.98,0003.35,0002.85
2022-09-19 22:54:00,,0824.7,4.99,0.00,29.6,27.1,00.0,38.2,31.3,14.6,0000.0,0010.19,0003.40,0002.86
2022-09-19 22:55:00,,0824.7,5.00,0.00,29.6,27.4,00.0,38.2,31.3,14.9,0000.0,0011.88,0003.40,0002.88
2022-09-19 22:56:00,,0824.7,5.01,0.00,29.6,27.7,00.0,38.2,31.4,14.3,0000.0,0012.03,0003.38,0002.90
2022-09-19 22:57:00,,0824.7,4.99,0.00,29.6,28.0,00.0,38.2,31.4,14.5,0000.0,0011.82,0003.36,0002.90
2022-09-19 22:58:00,,0824.6,5.01,0.00,29.7,28.2,00.0,38.2,31.5,14.8,0000.0,0012.71,0003.37,0002.88
2022-09-19 22:59:00,,0824.6,4.99,0.00,29.7,28.4,00.0,38.3,31.6,14.8,0000.0,0013.12,0003.41,0002.89
